[[{"header":{"parameterUnit":"m.s-1","parameterCategory":1,"la1":30.2992,"la2":30.254,"lo1":-89.0895,"lo2":-89.0443,"dy":0.0025,"dx":0.0025,"nx":19,"ny":19,"refTime":"2026-04-15T03:00:00:Z","depth":0,"parameterNumber":2,"parameterNumberName":"U-component_of_WINDS"},"data":[0,0,0,-3.5803,-3.5805,-3.5853,-3.5854,-3.5931,-3.5932,0,0,0,0,0,0,0,0,0,0,0,-3.5799,-3.58,-3.5803,-3.5805,-3.5853,-3.5854,-3.5931,-3.5932,0,0,0,0,0,0,0,0,0,0,0,-3.5799,-3.58,-3.5801,-3.5805,-3.5853,-3.5854,-3.5931,-3.5888,0,0,0,0,0,0,0,0,0,0,-3.5838,-3.5844,-3.5799,-3.5801,-3.5805,-3.5853,-3.5854,-3.5886,-3.5891,-3.5916,0,-3.5941,0,-3.5938,-3.5938,-3.5938,0,0,0,-3.5797,-3.584,-3.5844,-3.5801,-3.5806,-3.5853,-3.5829,-3.5888,-3.5894,-3.5922,-3.5942,-3.5945,-3.5939,-3.5939,-3.5939,-3.6112,-3.6113,0,0,-3.5794,-3.5813,-3.5841,-3.5849,-3.5844,-3.5828,-3.5831,-3.5892,-3.5914,-3.5943,-3.5946,-3.5941,-3.5939,-3.594,-3.611,-3.6112,0,0,0,-3.5792,-3.5811,-3.5814,-3.5846,-3.5854,-3.5829,-3.5833,-3.5911,-3.5911,-3.5947,-3.5942,-3.594,-3.5941,-3.6109,-3.6111,-3.6186,0,0,0,-3.579,-3.581,-3.5813,-3.5825,-3.5853,-3.5883,-3.5852,-3.5906,-3.5913,-3.5941,-3.594,-3.5942,-3.6108,-3.611,-3.6181,-3.6218,0,0,0,-3.5792,-3.581,-3.5821,-3.5826,-3.5848,-3.5882,-3.5884,-3.5907,-3.591,-3.5938,-3.5942,-3.6107,-3.611,-3.6177,-3.6211,-3.6267,0,0,0,-3.58,-3.5887,-3.5823,-3.5918,-3.5848,-3.593,-3.5884,-3.5944,-3.5978,-3.594,-3.6108,-3.6111,-3.6176,-3.6206,-3.6263,-3.6316,-3.6341,0,0,-3.592,-3.5903,-3.5957,-3.5901,-3.5999,-3.5921,-3.603,-3.6042,-3.6028,-3.6084,-3.6088,-3.6183,-3.621,-3.6266,-3.6479,-3.6499,0,0,0,-3.6002,-3.6041,-3.6063,-3.6096,-3.611,-3.6123,-3.6117,-3.6122,-3.6169,-3.6061,-3.622,-3.6235,-3.6267,-3.6292,-3.6309,-3.6334,-3.6124,-3.6124,-3.6123,-3.6196,-3.6174,-3.6262,-3.6246,-3.628,-3.6274,-3.6298,-3.6303,-3.627,-3.6309,-3.6324,-3.6456,-3.6486,-3.6498,-3.6525,-3.6353,-3.6353,-3.6354,-3.6354,-3.6368,-3.6419,-3.6375,-3.6445,-3.6421,-3.6478,-3.6477,-3.6452,-3.6501,-3.6442,-3.6469,-3.6404,-3.6521,-3.6543,-3.6359,-3.6358,-3.6358,-3.6357,-3.6357,-3.649,-3.651,-3.6517,-3.6563,-3.6602,-3.6583,-3.6632,-3.6609,-3.6587,-3.6615,-3.6627,-3.6625,-3.6619,-3.6623,-3.6623,-3.6624,-3.6624,-3.6625,-3.6625,-3.6613,-3.6618,-3.6663,-3.6685,-3.6704,-3.6725,-3.6722,-3.6739,-3.6752,-3.6731,-3.6731,-3.6693,-3.6538,-3.6497,-3.6632,-3.663,-3.663,-3.6629,-3.6628,-3.679,-3.6746,-3.6816,-3.6835,-3.6859,-3.6898,-3.687,-3.6907,-3.6918,-3.6943,-3.6901,-3.6791,-3.677,-3.6757,-3.6723,-3.6907,-3.6907,-3.6907,-3.6907,-3.689,-3.6879,-3.6945,-3.6976,-3.7005,-3.6986,-3.7064,-3.7063,-3.7055,-3.706,-3.7031,-3.6985,-3.6973,-3.6959,-3.6941,-3.6909,-3.7136,-3.7136,-3.7137,-3.6996,-3.6987,-3.7058,-3.705,-3.7068,-3.7083,-3.7156,-3.7193,-3.7174,-3.7145,-3.7063,-3.7053,-3.6979,-3.6957,-3.6922,-3.6895,-3.6835,0,0]},{"header":{"parameterUnit":"m.s-1","parameterCategory":1,"la1":30.2992,"la2":30.254,"lo1":-89.0895,"lo2":-89.0443,"dy":0.0025,"dx":0.0025,"nx":19,"ny":19,"refTime":"2026-04-15T03:00:00:Z","depth":0,"parameterNumber":3,"parameterNumberName":"V-component_of_WINDS"},"data":[0,0,0,3.5009,3.5011,3.5104,3.5104,3.5214,3.5215,0,0,0,0,0,0,0,0,0,0,0,3.4978,3.4979,3.5009,3.5011,3.5104,3.5104,3.5214,3.5215,0,0,0,0,0,0,0,0,0,0,0,3.4978,3.4978,3.4979,3.5012,3.5104,3.5104,3.5214,3.5147,0,0,0,0,0,0,0,0,0,0,3.5058,3.5025,3.4978,3.4979,3.5012,3.5104,3.5104,3.5143,3.5151,3.5169,0,3.5185,0,3.5202,3.5222,3.5222,0,0,0,3.5014,3.5019,3.5048,3.4979,3.5013,3.5103,3.5063,3.5148,3.5156,3.5179,3.5187,3.5191,3.5204,3.5223,3.5223,3.5326,3.5326,0,0,3.5009,3.4992,3.5042,3.5053,3.504,3.506,3.5066,3.5153,3.516,3.5187,3.5194,3.5206,3.5223,3.5224,3.5325,3.5326,0,0,0,3.4992,3.4988,3.5015,3.5049,3.5066,3.5062,3.5069,3.5156,3.5166,3.5195,3.5207,3.5224,3.5225,3.5325,3.5326,3.5329,0,0,0,3.4989,3.4979,3.5013,3.5003,3.5064,3.5112,3.507,3.516,3.5171,3.5207,3.5224,3.5226,3.5325,3.5325,3.5328,3.5332,0,0,0,3.4973,3.4977,3.4989,3.5002,3.5042,3.5111,3.5127,3.5163,3.5178,3.5222,3.5227,3.5324,3.5325,3.5327,3.5331,3.5355,0,0,0,3.495,3.4988,3.4989,3.5036,3.5041,3.5113,3.5127,3.5181,3.5219,3.5225,3.5325,3.5326,3.5327,3.533,3.5354,3.5372,3.5379,0,0,3.4988,3.4992,3.5021,3.5025,3.5093,3.51,3.5169,3.5219,3.5237,3.5295,3.5298,3.5328,3.5331,3.5355,3.542,3.5424,0,0,0,3.5028,3.5048,3.507,3.5108,3.5149,3.5185,3.5226,3.5246,3.5296,3.5264,3.5344,3.5346,3.5361,3.537,3.5374,3.5389,3.5329,3.5329,3.5329,3.5055,3.508,3.5131,3.5167,3.5203,3.5249,3.528,3.5313,3.5324,3.5343,3.536,3.5397,3.5407,3.541,3.5425,3.5372,3.5372,3.5372,3.5372,3.5114,3.5147,3.5166,3.5222,3.5248,3.5294,3.534,3.5347,3.5394,3.5385,3.54,3.5387,3.5415,3.5429,3.5373,3.5373,3.5372,3.5372,3.5372,3.5134,3.5155,3.518,3.5239,3.5281,3.5317,3.5362,3.5384,3.5403,3.5418,3.5439,3.5439,3.5441,3.5427,3.5427,3.5427,3.5427,3.5427,3.5427,3.5145,3.5174,3.521,3.526,3.5289,3.5329,3.5377,3.5405,3.5441,3.5453,3.5453,3.5464,3.5414,3.5401,3.5429,3.5429,3.5429,3.5428,3.5428,3.5194,3.5187,3.5244,3.5273,3.5334,3.5376,3.5404,3.5461,3.5487,3.5509,3.5518,3.5478,3.5482,3.5479,3.5468,3.5512,3.5512,3.5512,3.5512,3.5211,3.5217,3.5281,3.5326,3.5373,3.5405,3.5468,3.5507,3.5545,3.5563,3.556,3.5548,3.5544,3.5551,3.5546,3.5536,3.5597,3.5597,3.5597,3.5242,3.5254,3.5304,3.5344,3.5395,3.5438,3.5498,3.5549,3.5591,3.5601,3.5578,3.5574,3.5555,3.5547,3.5555,3.5547,3.553,0,0]}]]